contact:dominique.lefevre@mio.osupytheas.fr, maurice.libes@osupytheas.fr, didier.mallarino@osupytheas.fr
Project:EMSO http://www.emso-fr.org/EMSO-France
Depth: 2436.0 m
Title:EMSO Ligure Ouest : Data MII capteur AQUADOPP
Date,Latitude,Longitude,X_East,Y_North,Z_Up,Amplitude_X,Amplitude_Y,Amplitude_Z,Batterie,SoundSpeed,Heading,Pitch,Roll,Pressure,TIS,Speed,Direction
, degrees North, degrees East, m.s-1, m.s-1,m.s-1, 1, 1, 1, Volt, m.s-1, degree, degree, degree, dbar, degree_C, m.s-1, degree
2020-06-16T00:04:03,42.805,6.029,-0.002,-0.004,-0.006,103.0,105.0,100.0,13.3,1505.3,325.9,-0.7,1.9,2470.429,13.33,0.004,206.6
2020-06-16T00:07:03,42.805,6.029,-0.003,-0.004,-0.007,104.0,105.0,100.0,13.3,1505.4,327.5,-0.7,1.8,2470.35,13.34,0.005,216.9
2020-06-16T00:10:03,42.805,6.029,0.029,0.012,0.004,102.0,106.0,99.0,13.4,1505.4,322.8,-0.7,1.8,2470.401,13.34,0.031,67.5
2020-06-16T00:13:03,42.805,6.029,0.017,0.02,0.008,101.0,106.0,100.0,13.4,1505.4,323.0,-0.7,1.8,2470.386,13.34,0.026,40.4
2020-06-16T00:16:03,42.805,6.029,0.013,0.014,0.016,103.0,107.0,101.0,13.4,1505.4,323.8,-0.7,1.8,2470.384,13.34,0.019,42.9
2020-06-16T00:19:03,42.805,6.029,0.007,0.01,0.002,101.0,105.0,99.0,13.4,1505.4,328.1,-0.7,1.8,2470.413,13.35,0.012,35.0
2020-06-16T00:22:03,42.805,6.029,0.04,0.022,0.005,99.0,106.0,100.0,13.3,1505.4,323.7,-0.7,1.8,2470.412,13.35,0.045,61.2
2020-06-16T00:25:03,42.805,6.029,-0.009,0.007,-0.021,100.0,107.0,101.0,13.4,1505.4,324.5,-0.8,1.8,2470.44,13.35,0.011,307.9
2020-06-16T00:28:03,42.805,6.029,0.019,0.011,0.017,102.0,105.0,101.0,13.4,1505.4,323.3,-0.7,1.8,2470.369,13.35,0.021,59.9
2020-06-16T00:31:03,42.805,6.029,0.036,0.0,0.033,103.0,107.0,99.0,13.3,1505.4,327.8,-0.7,1.8,2470.435,13.35,0.036,90.0
2020-06-16T00:34:03,42.805,6.029,0.011,0.004,-0.001,102.0,108.0,99.0,13.4,1505.4,326.3,-0.7,1.8,2470.427,13.35,0.011,70.0
2020-06-16T00:37:03,42.805,6.029,0.018,0.01,0.036,101.0,105.0,100.0,13.4,1505.4,327.3,-0.7,1.9,2470.421,13.35,0.02,60.9
2020-06-16T00:40:03,42.805,6.029,0.033,0.012,0.036,104.0,106.0,99.0,13.4,1505.4,323.6,-0.7,1.8,2470.395,13.35,0.035,70.0
2020-06-16T00:43:03,42.805,6.029,0.018,0.003,0.011,102.0,107.0,100.0,13.4,1505.4,326.0,-0.7,1.8,2470.393,13.35,0.018,80.5
2020-06-16T00:46:03,42.805,6.029,0.041,0.029,0.024,103.0,107.0,102.0,13.4,1505.4,326.2,-0.7,1.8,2470.403,13.35,0.05,54.7
2020-06-16T00:49:03,42.805,6.029,0.052,-0.003,0.032,101.0,106.0,100.0,13.4,1505.4,327.0,-0.7,1.8,2470.416,13.35,0.052,93.3
2020-06-16T00:52:03,42.805,6.029,0.035,0.004,0.044,102.0,106.0,100.0,13.4,1505.4,324.8,-0.7,1.8,2470.388,13.35,0.035,83.5
2020-06-16T00:55:03,42.805,6.029,0.011,-0.007,0.038,102.0,106.0,100.0,13.3,1505.4,324.2,-0.7,1.8,2470.411,13.35,0.013,122.5
2020-06-16T00:58:03,42.805,6.029,0.055,0.005,0.015,102.0,107.0,99.0,13.4,1505.4,324.6,-0.7,1.8,2470.417,13.35,0.055,84.8
2020-06-16T01:04:03,42.805,6.029,0.009,0.003,-0.003,102.0,106.0,101.0,13.4,1505.3,324.6,-0.7,1.8,2470.397,13.33,0.009,71.6
2020-06-16T01:07:03,42.805,6.029,0.036,-0.004,0.04,104.0,107.0,100.0,13.4,1505.4,325.7,-0.7,1.8,2470.399,13.34,0.036,96.3
2020-06-16T01:10:03,42.805,6.029,0.036,0.01,0.037,101.0,105.0,101.0,13.4,1505.4,326.0,-0.7,1.8,2470.398,13.34,0.037,74.5
2020-06-16T01:13:03,42.805,6.029,0.015,0.016,0.021,100.0,107.0,101.0,13.3,1505.4,325.4,-0.7,1.8,2470.427,13.34,0.021,43.1
2020-06-16T01:16:03,42.805,6.029,0.032,0.011,0.032,106.0,108.0,99.0,13.3,1505.4,326.0,-0.8,1.8,2470.393,13.35,0.033,71.0
2020-06-16T01:19:03,42.805,6.029,0.025,0.016,0.022,101.0,108.0,100.0,13.4,1505.4,326.3,-0.7,1.8,2470.404,13.35,0.029,57.4
2020-06-16T01:22:03,42.805,6.029,0.026,0.01,0.002,101.0,106.0,100.0,13.4,1505.4,327.5,-0.7,1.8,2470.43,13.35,0.027,69.0
2020-06-16T01:25:03,42.805,6.029,0.043,0.014,0.022,104.0,106.0,100.0,13.4,1505.4,325.7,-0.7,1.9,2470.446,13.35,0.045,72.0
2020-06-16T01:28:03,42.805,6.029,0.039,0.025,0.024,102.0,105.0,100.0,13.4,1505.4,326.8,-0.7,1.8,2470.391,13.35,0.046,57.3
2020-06-16T01:31:03,42.805,6.029,0.026,0.004,0.009,101.0,105.0,100.0,13.3,1505.4,325.3,-0.7,1.8,2470.422,13.35,0.026,81.3
2020-06-16T01:34:03,42.805,6.029,0.024,0.0,-0.004,102.0,107.0,100.0,13.4,1505.4,327.8,-0.7,1.8,2470.432,13.35,0.024,90.0
2020-06-16T01:37:03,42.805,6.029,0.024,0.024,0.054,100.0,107.0,101.0,13.4,1505.4,323.6,-0.7,1.8,2470.425,13.35,0.033,45.0
2020-06-16T01:40:03,42.805,6.029,0.022,-0.012,0.017,102.0,107.0,100.0,13.4,1505.4,326.8,-0.7,1.8,2470.441,13.35,0.025,118.6
2020-06-16T01:43:03,42.805,6.029,0.019,0.027,0.033,103.0,106.0,99.0,13.3,1505.4,325.5,-0.7,1.8,2470.462,13.35,0.033,35.1
2020-06-16T01:46:03,42.805,6.029,0.036,0.019,-0.004,102.0,107.0,100.0,13.3,1505.4,325.1,-0.7,1.8,2470.435,13.35,0.04,62.2
2020-06-16T01:49:03,42.805,6.029,0.019,0.012,0.0,102.0,107.0,99.0,13.4,1505.4,326.5,-0.7,1.8,2470.419,13.35,0.022,57.7
2020-06-16T01:52:03,42.805,6.029,0.02,0.001,0.019,102.0,106.0,100.0,13.4,1505.4,327.4,-0.7,1.9,2470.404,13.35,0.02,87.1
2020-06-16T01:55:03,42.805,6.029,0.034,0.01,0.01,103.0,107.0,99.0,13.3,1505.4,326.5,-0.7,1.8,2470.396,13.35,0.035,73.6
2020-06-16T01:58:03,42.805,6.029,0.036,0.007,0.015,105.0,105.0,102.0,13.3,1505.4,325.5,-0.7,1.8,2470.447,13.35,0.036,79.0
2020-06-16T02:04:03,42.805,6.029,0.008,0.018,0.03,102.0,106.0,99.0,13.3,1505.3,326.3,-0.8,1.8,2470.498,13.33,0.019,24.0
2020-06-16T02:07:03,42.805,6.029,0.007,-0.004,0.012,100.0,106.0,100.0,13.4,1505.3,323.5,-0.7,1.8,2470.47,13.33,0.008,119.7
2020-06-16T02:10:03,42.805,6.029,0.035,0.0,0.0,101.0,106.0,100.0,13.3,1505.4,327.6,-0.7,1.8,2470.465,13.34,0.035,90.0
2020-06-16T02:13:03,42.805,6.029,0.017,0.009,0.022,102.0,105.0,99.0,13.4,1505.4,323.9,-0.7,1.8,2470.439,13.34,0.019,62.1
2020-06-16T02:16:03,42.805,6.029,0.025,0.009,-0.016,102.0,106.0,100.0,13.4,1505.4,328.0,-0.7,1.8,2470.451,13.34,0.026,70.2
2020-06-16T02:19:03,42.805,6.029,0.023,0.013,0.023,102.0,107.0,100.0,13.3,1505.4,326.2,-0.7,1.8,2470.448,13.34,0.026,60.5
2020-06-16T02:22:03,42.805,6.029,-0.002,-0.006,0.015,103.0,106.0,104.0,13.4,1505.4,328.4,-0.7,1.8,2470.454,13.34,0.006,198.4
2020-06-16T02:25:03,42.805,6.029,0.029,0.012,0.031,101.0,108.0,99.0,13.3,1505.4,327.0,-0.7,1.8,2470.489,13.34,0.031,67.5
2020-06-16T02:28:03,42.805,6.029,0.033,0.023,0.04,103.0,106.0,99.0,13.3,1505.4,325.6,-0.7,1.8,2470.462,13.35,0.04,55.1
2020-06-16T02:31:03,42.805,6.029,0.053,0.016,0.039,101.0,107.0,99.0,13.3,1505.4,325.6,-0.7,1.8,2470.462,13.35,0.055,73.2
2020-06-16T02:34:03,42.805,6.029,0.014,0.023,0.007,101.0,107.0,100.0,13.4,1505.4,324.6,-0.7,1.8,2470.448,13.35,0.026,31.3
2020-06-16T02:37:03,42.805,6.029,0.052,0.002,0.044,101.0,107.0,99.0,13.3,1505.4,325.1,-0.7,1.8,2470.462,13.35,0.052,87.8
2020-06-16T02:40:03,42.805,6.029,0.049,0.014,0.043,102.0,105.0,100.0,13.4,1505.4,325.3,-0.7,1.8,2470.411,13.35,0.05,74.1
2020-06-16T02:43:03,42.805,6.029,0.024,0.007,-0.001,102.0,106.0,100.0,13.4,1505.4,324.6,-0.7,1.8,2470.426,13.35,0.025,73.7
2020-06-16T02:46:03,42.805,6.029,-0.01,-0.01,-0.031,103.0,105.0,99.0,13.3,1505.4,323.8,-0.7,1.8,2470.451,13.35,0.014,225.0
2020-06-16T02:49:03,42.805,6.029,0.013,0.006,-0.004,103.0,106.0,98.0,13.4,1505.4,327.2,-0.7,1.8,2470.442,13.35,0.014,65.2
2020-06-16T02:52:03,42.805,6.029,0.017,0.006,0.016,104.0,106.0,100.0,13.3,1505.4,326.8,-0.7,1.8,2470.471,13.35,0.018,70.6
2020-06-16T02:55:03,42.805,6.029,0.01,0.0,0.0,101.0,106.0,100.0,13.3,1505.4,327.3,-0.7,1.9,2470.447,13.35,0.01,90.0
2020-06-16T02:58:03,42.805,6.029,0.021,0.003,0.021,102.0,106.0,98.0,13.4,1505.4,323.2,-0.7,1.8,2470.438,13.35,0.021,81.9
2020-06-16T03:04:03,42.805,6.029,0.01,0.007,0.01,101.0,106.0,99.0,13.4,1505.3,326.4,-0.7,1.8,2470.514,13.33,0.012,55.0
2020-06-16T03:07:03,42.805,6.029,0.006,0.033,0.015,101.0,106.0,100.0,13.3,1505.3,324.8,-0.8,1.8,2470.45,13.33,0.033,10.3
2020-06-16T03:10:03,42.805,6.029,0.018,0.025,0.02,102.0,106.0,100.0,13.4,1505.4,325.0,-0.7,1.8,2470.513,13.34,0.03,35.8
2020-06-16T03:13:03,42.805,6.029,0.019,0.012,0.011,101.0,106.0,99.0,13.3,1505.4,325.4,-0.7,1.8,2470.486,13.34,0.022,57.7
2020-06-16T03:16:03,42.805,6.029,0.033,0.002,0.011,101.0,106.0,100.0,13.4,1505.4,325.4,-0.7,1.8,2470.455,13.34,0.033,86.5
2020-06-16T03:19:03,42.805,6.029,0.023,0.006,0.026,101.0,107.0,99.0,13.4,1505.4,325.7,-0.7,1.8,2470.472,13.34,0.023,75.4
2020-06-16T03:22:03,42.805,6.029,0.047,0.019,0.035,100.0,107.0,100.0,13.4,1505.4,323.9,-0.7,1.8,2470.525,13.34,0.05,68.0
2020-06-16T03:25:03,42.805,6.029,0.01,-0.004,0.02,102.0,108.0,99.0,13.4,1505.4,324.7,-0.7,1.8,2470.513,13.35,0.01,111.8
2020-06-16T03:28:03,42.805,6.029,0.026,0.015,0.017,100.0,106.0,100.0,13.4,1505.4,325.7,-0.7,1.8,2470.476,13.34,0.03,60.0
2020-06-16T03:31:03,42.805,6.029,-0.002,0.001,-0.015,99.0,105.0,100.0,13.4,1505.4,328.3,-0.7,1.8,2470.445,13.34,0.002,296.6
2020-06-16T03:34:03,42.805,6.029,0.017,0.001,0.029,102.0,105.0,99.0,13.3,1505.4,326.8,-0.7,1.8,2470.445,13.35,0.017,86.6
2020-06-16T03:37:03,42.805,6.029,0.045,0.015,0.032,102.0,106.0,99.0,13.4,1505.4,323.9,-0.7,1.8,2470.464,13.35,0.047,71.6
2020-06-16T03:40:03,42.805,6.029,0.042,0.0,0.0,101.0,106.0,99.0,13.4,1505.4,327.3,-0.7,1.8,2470.447,13.35,0.042,90.0
2020-06-16T03:43:03,42.805,6.029,0.006,0.001,-0.001,100.0,106.0,100.0,13.4,1505.4,326.7,-0.7,1.8,2470.481,13.35,0.006,80.5
2020-06-16T03:46:03,42.805,6.029,0.033,0.021,0.004,101.0,106.0,99.0,13.4,1505.4,325.9,-0.7,1.8,2470.455,13.35,0.039,57.5
2020-06-16T03:49:03,42.805,6.029,0.034,0.015,0.008,102.0,106.0,98.0,13.4,1505.4,323.3,-0.7,1.8,2470.407,13.35,0.037,66.2
2020-06-16T03:52:03,42.805,6.029,0.032,0.006,-0.011,101.0,106.0,99.0,13.4,1505.4,326.1,-0.7,1.8,2470.452,13.35,0.032,79.4
2020-06-16T03:55:03,42.805,6.029,0.013,0.024,0.016,102.0,106.0,99.0,13.4,1505.4,326.7,-0.7,1.9,2470.421,13.35,0.027,28.4
2020-06-16T03:58:03,42.805,6.029,0.026,0.009,0.017,102.0,107.0,100.0,13.3,1505.4,326.0,-0.7,1.8,2470.428,13.35,0.027,70.9
2020-06-16T04:04:03,42.805,6.029,0.016,0.017,0.007,101.0,106.0,99.0,13.4,1505.3,325.9,-0.7,1.8,2470.49,13.33,0.023,43.3
2020-06-16T04:07:03,42.805,6.029,0.011,-0.004,0.014,103.0,106.0,99.0,13.3,1505.4,326.7,-0.7,1.8,2470.468,13.34,0.011,110.0
2020-06-16T04:10:03,42.805,6.029,0.012,0.016,0.006,103.0,106.0,100.0,13.3,1505.4,325.2,-0.7,1.8,2470.471,13.34,0.02,36.9
2020-06-16T04:13:03,42.805,6.029,-0.005,0.019,0.001,102.0,106.0,100.0,13.3,1505.4,326.4,-0.7,1.8,2470.426,13.34,0.019,345.3
2020-06-16T04:16:03,42.805,6.029,0.029,0.031,0.026,101.0,107.0,100.0,13.4,1505.4,327.7,-0.7,1.8,2470.486,13.34,0.042,43.1
2020-06-16T04:19:03,42.805,6.029,0.021,0.02,0.008,102.0,107.0,100.0,13.4,1505.4,326.9,-0.7,1.8,2470.439,13.34,0.028,46.4
2020-06-16T04:22:03,42.805,6.029,0.034,0.01,0.029,103.0,107.0,100.0,13.4,1505.4,323.5,-0.7,1.8,2470.502,13.34,0.035,73.6
2020-06-16T04:25:03,42.805,6.029,0.001,0.023,0.01,102.0,107.0,100.0,13.4,1505.4,325.4,-0.7,1.8,2470.457,13.34,0.023,2.5
2020-06-16T04:28:03,42.805,6.029,0.025,0.018,0.03,103.0,106.0,98.0,13.4,1505.4,326.4,-0.7,1.8,2470.489,13.34,0.03,54.2
2020-06-16T04:31:03,42.805,6.029,0.009,0.025,0.036,102.0,108.0,99.0,13.4,1505.4,323.9,-0.7,1.8,2470.487,13.34,0.026,19.8
2020-06-16T04:34:03,42.805,6.029,0.012,0.004,-0.002,102.0,107.0,100.0,13.3,1505.4,324.1,-0.7,1.8,2470.439,13.34,0.012,71.6
2020-06-16T04:37:03,42.805,6.029,0.01,0.021,-0.003,101.0,107.0,100.0,13.4,1505.4,326.6,-0.7,1.8,2470.452,13.34,0.023,25.5
2020-06-16T04:40:03,42.805,6.029,-0.007,0.007,0.0,102.0,107.0,100.0,13.4,1505.4,325.6,-0.7,1.8,2470.453,13.34,0.009,315.0
2020-06-16T04:43:03,42.805,6.029,0.005,0.0,-0.018,105.0,109.0,100.0,13.3,1505.4,324.5,-0.7,1.8,2470.461,13.34,0.005,90.0
2020-06-16T04:46:03,42.805,6.029,0.026,0.021,0.034,103.0,108.0,100.0,13.3,1505.4,327.0,-0.7,1.8,2470.447,13.34,0.033,51.1
2020-06-16T04:49:03,42.805,6.029,0.02,0.017,0.024,102.0,106.0,100.0,13.4,1505.4,326.7,-0.7,1.8,2470.47,13.34,0.026,49.6
2020-06-16T04:52:03,42.805,6.029,0.0,0.03,0.024,103.0,107.0,100.0,13.4,1505.4,323.6,-0.7,1.8,2470.453,13.34,0.03,0.0
2020-06-16T04:55:03,42.805,6.029,0.0,0.016,-0.009,103.0,106.0,101.0,13.3,1505.4,325.9,-0.7,1.8,2470.417,13.34,0.016,0.0
2020-06-16T04:58:03,42.805,6.029,0.029,0.0,0.032,103.0,107.0,100.0,13.3,1505.4,327.6,-0.7,1.8,2470.44,13.35,0.028,90.0
2020-06-16T05:04:03,42.805,6.029,0.013,0.0,0.017,102.0,106.0,100.0,13.3,1505.3,326.3,-0.7,1.8,2470.486,13.33,0.013,90.0
2020-06-16T05:07:03,42.805,6.029,0.006,0.006,0.001,102.0,106.0,100.0,13.3,1505.3,324.4,-0.8,1.8,2470.455,13.33,0.008,45.0
2020-06-16T05:10:03,42.805,6.029,0.003,0.015,-0.001,103.0,108.0,99.0,13.4,1505.4,324.2,-0.7,1.9,2470.475,13.34,0.015,11.3
2020-06-16T05:13:03,42.805,6.029,-0.003,0.019,0.012,100.0,108.0,99.0,13.4,1505.4,325.8,-0.7,1.9,2470.434,13.34,0.019,351.0
2020-06-16T05:16:03,42.805,6.029,0.006,0.006,-0.015,103.0,105.0,100.0,13.4,1505.4,327.2,-0.7,1.8,2470.49,13.34,0.008,45.0
2020-06-16T05:19:03,42.805,6.029,-0.003,0.009,-0.021,101.0,106.0,100.0,13.4,1505.4,326.6,-0.7,1.8,2470.438,13.34,0.009,341.6
2020-06-16T05:22:03,42.805,6.029,0.034,-0.007,-0.005,103.0,106.0,99.0,13.4,1505.4,325.4,-0.7,1.8,2470.469,13.34,0.034,101.6
2020-06-16T05:25:03,42.805,6.029,0.006,0.006,0.005,102.0,107.0,99.0,13.3,1505.4,325.6,-0.7,1.9,2470.497,13.34,0.008,45.0
2020-06-16T05:28:03,42.805,6.029,-0.008,0.0,-0.026,100.0,106.0,99.0,13.3,1505.4,328.7,-0.7,1.8,2470.448,13.35,0.008,270.0
2020-06-16T05:31:03,42.805,6.029,0.003,0.004,0.032,101.0,106.0,100.0,13.4,1505.4,326.3,-0.7,1.8,2470.468,13.34,0.005,36.9
2020-06-16T05:34:03,42.805,6.029,0.004,-0.003,0.007,103.0,107.0,99.0,13.4,1505.4,326.4,-0.7,1.8,2470.433,13.35,0.005,126.9
2020-06-16T05:37:03,42.805,6.029,-0.003,0.01,-0.015,100.0,107.0,101.0,13.4,1505.4,326.8,-0.7,1.8,2470.438,13.35,0.01,343.3
2020-06-16T05:40:03,42.805,6.029,0.001,0.021,0.008,101.0,106.0,100.0,13.4,1505.4,328.4,-0.7,1.8,2470.48,13.35,0.021,2.7
2020-06-16T05:43:03,42.805,6.029,0.0,0.0,-0.004,101.0,106.0,100.0,13.4,1505.4,324.0,-0.7,1.8,2470.452,13.35,0.0,0.0
2020-06-16T05:46:03,42.805,6.029,0.02,0.034,0.025,101.0,106.0,102.0,13.4,1505.4,326.5,-0.7,1.8,2470.428,13.35,0.039,30.5
2020-06-16T05:49:03,42.805,6.029,0.01,0.013,0.023,101.0,107.0,100.0,13.4,1505.4,324.2,-0.7,1.8,2470.429,13.35,0.016,37.6
2020-06-16T05:52:03,42.805,6.029,0.014,0.001,-0.001,102.0,107.0,99.0,13.4,1505.4,327.9,-0.7,1.8,2470.454,13.35,0.014,85.9
2020-06-16T05:55:03,42.805,6.029,-0.023,0.009,-0.013,102.0,105.0,99.0,13.4,1505.4,322.9,-0.7,1.8,2470.425,13.35,0.024,291.4
2020-06-16T05:58:03,42.805,6.029,0.018,0.012,0.016,103.0,106.0,100.0,13.4,1505.4,327.9,-0.7,1.9,2470.419,13.35,0.021,56.3
2020-06-16T06:04:03,42.805,6.029,-0.011,0.002,-0.063,101.0,107.0,97.0,13.4,1505.3,323.0,-0.8,1.8,2470.509,13.33,0.011,280.3
2020-06-16T06:07:03,42.805,6.029,0.009,0.015,-0.026,102.0,106.0,99.0,13.4,1505.4,323.8,-0.7,1.8,2470.441,13.34,0.017,31.0
2020-06-16T06:10:03,42.805,6.029,0.031,0.0,0.005,103.0,106.0,99.0,13.4,1505.4,327.8,-0.7,1.8,2470.432,13.34,0.03,90.0
2020-06-16T06:13:03,42.805,6.029,0.028,-0.017,-0.015,103.0,108.0,98.0,13.4,1505.4,323.7,-0.7,1.9,2470.413,13.34,0.032,121.3
2020-06-16T06:16:03,42.805,6.029,0.051,0.003,0.031,102.0,107.0,99.0,13.4,1505.4,328.0,-0.7,1.9,2470.431,13.34,0.051,86.6
2020-06-16T06:19:03,42.805,6.029,0.008,0.02,-0.009,100.0,106.0,101.0,13.4,1505.4,327.5,-0.7,1.8,2470.431,13.34,0.021,21.8
2020-06-16T06:22:03,42.805,6.029,0.017,0.011,0.013,100.0,106.0,100.0,13.4,1505.4,326.6,-0.7,1.8,2470.434,13.35,0.02,57.1
2020-06-16T06:25:03,42.805,6.029,0.014,0.017,0.009,103.0,105.0,99.0,13.4,1505.4,324.3,-0.7,1.8,2470.459,13.34,0.022,39.5
2020-06-16T06:28:03,42.805,6.029,0.014,0.003,0.002,101.0,106.0,99.0,13.4,1505.4,323.9,-0.7,1.8,2470.425,13.34,0.014,77.9
2020-06-16T06:31:03,42.805,6.029,0.028,0.013,0.045,101.0,106.0,99.0,13.3,1505.4,325.7,-0.7,1.8,2470.411,13.35,0.03,65.1
2020-06-16T06:34:03,42.805,6.029,0.038,0.016,0.034,101.0,107.0,99.0,13.4,1505.4,323.2,-0.7,1.8,2470.423,13.35,0.041,67.2
2020-06-16T06:37:03,42.805,6.029,0.047,0.011,0.05,100.0,106.0,98.0,13.4,1505.4,324.8,-0.7,1.8,2470.417,13.35,0.048,76.8
2020-06-16T06:40:03,42.805,6.029,0.003,0.031,-0.009,101.0,105.0,101.0,13.4,1505.4,328.2,-0.7,1.8,2470.428,13.35,0.031,5.5
2020-06-16T06:43:03,42.805,6.029,0.011,0.022,0.01,101.0,106.0,99.0,13.4,1505.4,326.1,-0.7,1.8,2470.414,13.35,0.024,26.6
2020-06-16T06:46:03,42.805,6.029,0.005,0.0,0.036,101.0,106.0,99.0,13.4,1505.4,328.1,-0.7,1.8,2470.384,13.35,0.005,90.0
2020-06-16T06:49:03,42.805,6.029,0.013,0.003,0.01,99.0,108.0,100.0,13.4,1505.4,322.9,-0.7,1.8,2470.414,13.34,0.013,77.0
2020-06-16T06:52:03,42.805,6.029,0.023,0.015,0.009,100.0,106.0,99.0,13.3,1505.4,325.9,-0.7,1.8,2470.414,13.34,0.027,56.9
2020-06-16T06:55:03,42.805,6.029,0.036,0.002,0.017,101.0,105.0,99.0,13.4,1505.4,324.1,-0.7,1.8,2470.402,13.34,0.036,86.8
2020-06-16T06:58:03,42.805,6.029,0.016,0.012,0.007,100.0,106.0,99.0,13.4,1505.4,327.4,-0.7,1.8,2470.382,13.34,0.02,53.1
2020-06-16T07:04:03,42.805,6.029,0.005,-0.006,-0.009,101.0,106.0,99.0,13.4,1505.3,326.9,-0.8,1.8,2470.473,13.32,0.007,140.2
2020-06-16T07:07:03,42.805,6.029,-0.003,0.013,-0.022,101.0,105.0,98.0,13.4,1505.3,328.1,-0.7,1.8,2470.471,13.33,0.013,347.0
2020-06-16T07:10:03,42.805,6.029,0.003,0.029,0.012,100.0,105.0,100.0,13.4,1505.3,326.4,-0.7,1.8,2470.401,13.33,0.029,5.9
2020-06-16T07:13:03,42.805,6.029,0.002,0.024,-0.008,102.0,106.0,98.0,13.4,1505.4,325.7,-0.7,1.8,2470.406,13.34,0.024,4.8
2020-06-16T07:16:03,42.805,6.029,-0.006,0.009,0.005,101.0,105.0,100.0,13.3,1505.4,326.8,-0.7,1.8,2470.368,13.34,0.01,326.3
2020-06-16T07:19:03,42.805,6.029,0.015,-0.005,-0.018,102.0,105.0,100.0,13.4,1505.4,326.3,-0.7,1.9,2470.351,13.34,0.015,108.4
2020-06-16T07:22:03,42.805,6.029,0.002,0.009,0.004,100.0,107.0,100.0,13.4,1505.4,324.4,-0.7,1.8,2470.421,13.34,0.009,12.5
2020-06-16T07:25:03,42.805,6.029,0.019,0.009,0.01,103.0,105.0,99.0,13.4,1505.4,326.7,-0.7,1.9,2470.369,13.34,0.021,64.7
2020-06-16T07:28:03,42.805,6.029,0.033,0.006,0.008,101.0,106.0,100.0,13.4,1505.4,328.2,-0.7,1.9,2470.338,13.34,0.033,79.7
2020-06-16T07:31:03,42.805,6.029,0.013,0.027,0.033,102.0,105.0,98.0,13.4,1505.4,323.5,-0.7,1.8,2470.399,13.35,0.029,25.7
2020-06-16T07:34:03,42.805,6.029,0.025,0.019,0.016,102.0,105.0,99.0,13.4,1505.4,326.7,-0.7,1.8,2470.427,13.35,0.031,52.8
2020-06-16T07:37:03,42.805,6.029,0.01,0.001,-0.001,105.0,106.0,99.0,13.4,1505.4,325.1,-0.7,1.8,2470.377,13.35,0.01,84.3
2020-06-16T07:40:03,42.805,6.029,0.018,-0.006,0.012,101.0,106.0,99.0,13.4,1505.4,328.2,-0.7,1.9,2470.392,13.35,0.018,108.4
2020-06-16T07:43:03,42.805,6.029,0.055,-0.017,0.037,102.0,106.0,100.0,13.4,1505.4,327.5,-0.7,1.8,2470.36,13.35,0.057,107.2
2020-06-16T07:46:03,42.805,6.029,0.018,0.011,-0.012,103.0,106.0,99.0,13.3,1505.4,328.1,-0.7,1.8,2470.353,13.34,0.021,58.6
2020-06-16T07:49:03,42.805,6.029,0.024,-0.002,-0.005,101.0,106.0,100.0,13.4,1505.4,325.3,-0.7,1.8,2470.415,13.35,0.024,94.8
2020-06-16T07:52:03,42.805,6.029,0.034,0.023,0.023,102.0,104.0,99.0,13.3,1505.4,325.1,-0.7,1.8,2470.361,13.35,0.041,55.9
2020-06-16T07:55:03,42.805,6.029,0.034,0.002,-0.02,103.0,106.0,100.0,13.4,1505.4,327.2,-0.7,1.8,2470.342,13.35,0.034,86.6
2020-06-16T07:58:03,42.805,6.029,0.006,0.011,-0.015,105.0,106.0,98.0,13.4,1505.4,323.9,-0.7,1.8,2470.346,13.34,0.012,28.6
2020-06-16T08:04:03,42.805,6.029,-0.005,0.009,-0.001,102.0,105.0,99.0,13.3,1505.3,326.1,-0.7,1.9,2470.402,13.32,0.01,330.9
2020-06-16T08:07:03,42.805,6.029,0.022,-0.009,0.042,102.0,106.0,100.0,13.4,1505.3,328.1,-0.7,1.8,2470.423,13.33,0.023,112.2
2020-06-16T08:10:03,42.805,6.029,0.013,-0.002,0.004,103.0,104.0,100.0,13.4,1505.3,324.8,-0.7,1.8,2470.369,13.33,0.013,98.7
2020-06-16T08:13:03,42.805,6.029,0.022,0.013,0.025,102.0,105.0,98.0,13.3,1505.4,325.0,-0.7,1.8,2470.385,13.34,0.025,59.4
2020-06-16T08:16:03,42.805,6.029,0.048,0.021,0.027,102.0,107.0,99.0,13.4,1505.4,324.3,-0.7,1.8,2470.416,13.34,0.052,66.4
2020-06-16T08:19:03,42.805,6.029,0.032,0.0,0.024,103.0,105.0,100.0,13.4,1505.4,323.5,-0.7,1.8,2470.411,13.34,0.032,90.0
2020-06-16T08:22:03,42.805,6.029,0.011,0.004,0.006,101.0,106.0,100.0,13.4,1505.4,325.8,-0.7,1.9,2470.371,13.34,0.011,70.0
2020-06-16T08:25:03,42.805,6.029,0.007,0.004,0.018,102.0,107.0,98.0,13.4,1505.4,323.7,-0.7,1.8,2470.404,13.34,0.008,60.3
2020-06-16T08:28:03,42.805,6.029,-0.018,0.017,-0.016,103.0,106.0,101.0,13.4,1505.4,326.9,-0.7,1.8,2470.349,13.34,0.024,313.4
2020-06-16T08:31:03,42.805,6.029,0.003,0.0,-0.029,103.0,106.0,98.0,13.3,1505.4,326.2,-0.7,1.8,2470.386,13.34,0.003,90.0
2020-06-16T08:34:03,42.805,6.029,0.029,0.005,-0.018,103.0,107.0,99.0,13.4,1505.4,323.6,-0.7,1.8,2470.39,13.34,0.029,80.2
2020-06-16T08:37:03,42.805,6.029,0.006,0.033,0.0,101.0,106.0,99.0,13.4,1505.4,324.1,-0.7,1.9,2470.378,13.34,0.033,10.3
2020-06-16T08:40:03,42.805,6.029,0.036,-0.005,0.011,102.0,106.0,101.0,13.4,1505.4,325.6,-0.7,1.8,2470.367,13.34,0.036,97.9
2020-06-16T08:43:03,42.805,6.029,-0.012,0.008,0.01,101.0,106.0,99.0,13.4,1505.4,326.4,-0.7,1.8,2470.35,13.34,0.014,303.7
2020-06-16T08:46:03,42.805,6.029,0.039,0.019,0.031,101.0,106.0,99.0,13.4,1505.4,324.1,-0.7,1.8,2470.344,13.34,0.043,64.0
2020-06-16T08:49:03,42.805,6.029,0.048,0.022,0.016,102.0,105.0,100.0,13.4,1505.4,324.8,-0.7,1.8,2470.364,13.34,0.052,65.4
2020-06-16T08:52:03,42.805,6.029,0.023,0.013,0.01,103.0,106.0,99.0,13.4,1505.4,323.4,-0.7,1.8,2470.334,13.34,0.026,60.5
2020-06-16T08:55:03,42.805,6.029,0.024,0.013,-0.006,101.0,105.0,100.0,13.4,1505.4,324.9,-0.7,1.8,2470.359,13.34,0.027,61.6
2020-06-16T08:58:03,42.805,6.029,0.007,0.008,-0.02,101.0,106.0,99.0,13.4,1505.4,323.2,-0.7,1.8,2470.321,13.34,0.01,41.2
2020-06-16T09:04:03,42.805,6.029,0.044,0.009,0.044,103.0,108.0,98.0,13.4,1505.3,323.7,-0.7,1.8,2470.389,13.32,0.044,78.4
2020-06-16T09:07:03,42.805,6.029,0.031,-0.009,0.016,102.0,106.0,100.0,13.4,1505.3,326.1,-0.7,1.8,2470.37,13.33,0.032,106.2
2020-06-16T09:10:03,42.805,6.029,-0.004,-0.003,-0.007,102.0,106.0,99.0,13.4,1505.3,325.8,-0.7,1.8,2470.382,13.33,0.005,233.1
2020-06-16T09:13:03,42.805,6.029,0.013,0.009,0.01,102.0,107.0,98.0,13.4,1505.3,322.8,-0.7,1.8,2470.378,13.33,0.015,55.3
2020-06-16T09:16:03,42.805,6.029,0.01,-0.008,-0.012,100.0,107.0,101.0,13.4,1505.4,327.2,-0.7,1.8,2470.402,13.34,0.012,128.7
2020-06-16T09:19:03,42.805,6.029,0.011,0.001,0.007,103.0,105.0,99.0,13.3,1505.4,324.8,-0.7,1.8,2470.375,13.34,0.011,84.8
2020-06-16T09:22:03,42.805,6.029,0.025,0.004,-0.01,100.0,106.0,100.0,13.4,1505.4,323.3,-0.7,1.9,2470.356,13.34,0.025,80.9
2020-06-16T09:25:03,42.805,6.029,0.036,0.004,0.012,102.0,107.0,98.0,13.3,1505.3,327.8,-0.7,1.8,2470.337,13.33,0.036,83.7
2020-06-16T09:28:03,42.805,6.029,0.001,-0.007,-0.024,104.0,106.0,98.0,13.4,1505.3,325.0,-0.7,1.8,2470.356,13.33,0.007,171.9
2020-06-16T09:31:03,42.805,6.029,0.002,0.006,0.003,101.0,106.0,100.0,13.4,1505.3,323.3,-0.7,1.8,2470.324,13.33,0.006,18.4
2020-06-16T09:34:03,42.805,6.029,0.016,-0.009,0.0,101.0,105.0,101.0,13.4,1505.3,327.1,-0.7,1.8,2470.351,13.33,0.018,119.4
2020-06-16T09:37:03,42.805,6.029,0.023,0.002,0.005,102.0,105.0,100.0,13.3,1505.3,324.2,-0.7,1.8,2470.325,13.33,0.023,85.0
2020-06-16T09:40:03,42.805,6.029,0.017,0.01,0.015,102.0,106.0,100.0,13.4,1505.3,322.8,-0.7,1.8,2470.296,13.33,0.019,59.5
2020-06-16T09:43:03,42.805,6.029,-0.007,0.002,-0.026,101.0,105.0,98.0,13.4,1505.3,327.2,-0.7,1.8,2470.381,13.33,0.007,285.9
2020-06-16T09:46:03,42.805,6.029,0.014,0.0,-0.026,102.0,105.0,101.0,13.3,1505.3,324.0,-0.7,1.8,2470.313,13.33,0.014,90.0
2020-06-16T09:49:03,42.805,6.029,0.009,-0.004,-0.01,101.0,106.0,100.0,13.4,1505.3,325.3,-0.7,1.8,2470.287,13.33,0.009,114.0
2020-06-16T09:52:03,42.805,6.029,0.02,0.0,0.009,102.0,106.0,100.0,13.3,1505.3,323.2,-0.7,1.9,2470.334,13.33,0.02,90.0
2020-06-16T09:58:03,42.805,6.029,0.029,-0.005,0.013,101.0,105.0,100.0,13.4,1505.3,326.4,-0.7,1.8,2470.394,13.31,0.029,99.8
2020-06-16T10:04:03,42.805,6.029,0.042,0.0,-0.014,103.0,106.0,99.0,13.3,1505.2,325.0,-0.8,1.8,2470.406,13.3,0.042,90.0
2020-06-16T10:07:03,42.805,6.029,0.003,0.016,-0.011,101.0,105.0,102.0,13.3,1505.3,322.8,-0.8,1.8,2470.34,13.31,0.016,10.6
2020-06-16T10:10:03,42.805,6.029,0.032,-0.013,0.004,101.0,107.0,100.0,13.4,1505.3,326.7,-0.7,1.8,2470.395,13.32,0.034,112.1
2020-06-16T10:13:03,42.805,6.029,0.012,-0.027,-0.022,103.0,107.0,98.0,13.4,1505.3,324.6,-0.7,1.8,2470.352,13.32,0.029,156.0